Wind_Speed
3 3 3 3 3 3 4 4 3 4 4 5 4 4 5 5 5 5 5 5 5 5 6 6 7 7 7 8 8 8 8 8 8 8 8 8 8 7 7 8 9 8 8
3 3 4 3 3 3 4 4 3 4 5 5 6 6 6 6 6 6 6 5 6 6 7 7 7 7 8 8 9 9 9 9 9 9 9 8 8 8 7 8 9 9 9
3 3 3 3 3 3 3 3 4 4 4 6 7 7 7 7 7 7 7 7 7 7 7 7 8 8 8 9 9 9 10 9 9 9 9 9 8 8 8 8 8 9 8
4 3 3 3 3 2 2 3 3 4 5 6 6 7 7 7 7 7 7 8 8 8 8 8 8 9 9 9 10 10 10 10 10 10 9 10 9 8 8 8 8 8 8
4 4 3 3 3 2 3 4 4 5 5 6 6 6 7 7 7 7 7 8 8 9 8 8 9 9 10 10 10 10 10 10 10 10 10 10 10 9 8 8 8 8 8
5 4 4 3 3 3 3 4 5 5 5 6 6 6 6 7 7 7 7 8 8 9 8 8 8 9 10 9 10 10 10 10 10 10 10 10 10 10 9 9 9 8 8
5 4 4 4 4 4 4 4 5 5 5 6 6 6 6 6 6 6 7 7 8 8 8 8 8 8 9 10 10 10 10 10 10 10 10 10 10 10 10 9 9 9 9
5 5 5 4 4 4 4 4 5 5 5 5 5 5 6 6 6 6 6 7 7 7 8 8 8 8 8 9 9 10 9 9 10 10 10 9 10 10 10 9 9 9 9
5 5 5 4 4 4 4 4 5 5 5 5 5 5 5 5 5 6 6 6 7 7 7 8 8 8 8 8 9 9 9 9 10 10 9 9 10 10 10 10 9 9 9
5 5 5 4 4 4 4 4 4 4 4 4 4 4 4 4 5 6 6 6 6 6 6 7 7 7 7 8 8 9 9 9 9 10 9 9 9 10 10 10 10 10 9
6 5 5 4 4 4 4 3 3 3 3 3 3 4 4 4 5 5 5 5 5 5 5 5 6 6 6 7 7 8 9 9 8 9 9 9 9 9 10 10 10 10 10
5 5 5 3 3 3 2 2 3 2 2 2 3 4 4 5 5 5 5 4 4 4 5 5 5 5 6 6 7 8 8 8 8 8 8 9 9 9 9 9 10 10 10
4 4 4 3 3 2 2 2 2 1 2 2 2 3 4 5 5 4 4 3 2 2 3 4 4 5 5 5 7 8 7 8 8 8 8 9 9 9 9 9 9 9 9
4 4 4 3 2 2 2 1 1 2 2 2 2 3 4 4 4 4 3 2 1 1 1 3 3 3 4 4 6 6 7 7 7 7 7 8 8 8 8 8 8 9 9
3 3 3 3 3 2 1 1 1 1 1 1 2 3 3 4 4 4 3 2 2 1 0 1 1 2 3 4 5 5 5 6 6 6 6 7 7 8 8 7 8 8 9
3 4 4 4 4 3 1 1 1 2 2 2 2 2 3 3 4 3 3 3 2 2 2 2 2 2 2 3 3 4 4 5 5 6 5 5 6 7 7 7 7 8 8
4 4 5 4 4 2 1 2 1 1 1 2 2 2 3 3 4 4 3 3 3 3 4 3 3 3 3 3 3 3 4 4 5 5 5 5 6 6 6 6 6 7 8
5 5 5 5 4 2 1 1 1 1 2 2 2 2 2 3 3 4 4 4 4 4 4 4 5 4 4 3 3 3 3 4 4 4 4 4 5 5 5 6 6 6 7
6 6 6 6 5 3 2 2 2 2 2 2 2 2 2 2 3 4 4 4 4 4 5 5 6 5 5 4 4 4 4 4 4 4 4 4 4 4 4 5 5 6 6
6 6 6 6 5 4 3 3 3 2 2 3 3 3 2 3 4 4 4 4 5 5 6 6 6 5 5 5 5 4 4 3 3 3 3 3 4 3 3 4 5 5 6
7 6 7 6 5 5 4 4 3 2 2 2 3 3 3 4 4 5 6 5 5 5 6 6 6 5 5 5 5 4 4 3 3 2 2 2 3 2 2 3 4 4 5
8 8 7 7 6 6 5 4 3 2 2 2 2 3 3 4 5 6 6 6 5 6 6 6 6 5 5 5 5 5 4 3 3 2 2 2 2 2 2 2 2 3 3
9 8 8 8 6 6 5 4 4 3 2 2 3 3 3 4 5 5 6 6 5 5 6 6 6 5 5 5 5 5 4 4 4 2 2 1 2 2 2 1 2 2 3
10 10 9 8 7 6 6 5 4 4 3 3 3 3 4 4 5 5 6 6 6 6 6 6 6 6 6 5 5 5 5 4 4 3 3 3 2 2 1 1 1 2 2
11 11 10 9 8 7 6 6 5 4 4 3 4 4 4 5 5 5 5 5 6 6 6 5 5 5 5 5 5 4 4 4 3 2 3 3 2 1 0 1 1 2 2
12 11 11 9 8 8 7 6 6 4 5 4 4 4 4 4 5 5 5 5 5 6 6 5 5 5 4 4 3 3 2 2 2 2 3 3 1 1 1 2 2 3 3
Wind_Direction
340 337 340 326 325 336 340 347 352 342 337 334 329 325 315 311 311 306 298 293 278 268 261 255 254 254 249 242 237 234 236 234 232 228 226 227 227 226 226 227 222 217 215
326 325 327 318 315 326 338 345 344 332 328 330 327 324 313 305 301 298 293 289 278 272 267 262 259 255 251 245 241 238 236 234 231 227 226 227 229 228 228 228 222 219 219
316 318 312 315 312 310 323 329 325 327 324 326 322 316 309 305 301 294 285 281 274 271 272 268 263 258 251 245 243 239 236 233 232 230 228 228 231 232 229 226 219 216 216
305 312 310 318 307 296 303 314 315 320 320 320 317 310 306 303 301 292 285 284 278 275 274 270 263 258 251 243 242 240 235 234 230 229 230 231 232 230 229 224 219 219 218
294 293 293 296 294 295 304 307 302 307 313 313 307 306 306 303 300 294 289 285 279 277 274 271 263 258 251 245 240 237 236 234 229 229 231 233 233 231 229 224 222 221 220
292 291 286 283 276 286 304 307 304 304 308 308 303 302 307 307 303 297 294 287 278 277 275 273 266 258 251 246 240 236 236 235 235 233 232 233 231 230 229 230 228 225 223
291 295 283 274 276 288 297 308 311 307 306 305 305 304 306 308 304 300 296 292 286 279 272 270 263 257 253 249 244 241 235 233 233 233 234 231 230 226 228 233 232 228 225
289 289 281 275 272 282 300 303 303 304 307 310 309 309 309 310 303 297 294 293 289 284 273 267 261 256 250 244 237 234 234 230 228 229 231 231 229 224 227 232 233 229 227
280 277 278 276 270 279 293 296 294 300 308 314 311 313 316 315 311 305 298 295 288 282 274 267 263 254 245 236 229 230 230 229 228 228 229 232 229 227 226 230 231 230 229
270 270 272 278 278 272 275 292 302 305 308 314 319 321 322 321 320 317 309 301 288 279 269 261 256 247 242 234 228 227 231 231 228 228 230 232 232 231 229 229 230 231 231
268 265 265 266 274 273 276 288 303 314 321 330 328 332 330 329 333 330 318 307 297 279 272 259 247 243 244 239 232 232 234 232 231 229 231 232 232 231 228 229 230 232 234
269 259 254 257 266 269 273 283 304 325 346 345 347 348 350 348 347 344 333 321 305 285 272 260 248 245 240 234 231 233 232 230 232 231 230 232 231 227 225 228 230 234 236
266 251 247 250 258 269 270 285 301 333 354 4 359 355 356 355 353 349 345 341 321 290 277 260 244 235 232 228 226 226 226 224 228 229 230 231 230 227 224 225 228 233 236
249 240 236 226 238 258 258 260 320 321 347 355 357 360 0 360 359 354 0 4 357 312 286 261 239 224 226 223 217 216 216 217 219 220 224 228 230 227 224 225 229 232 236
242 231 222 214 223 228 225 227 290 316 344 337 358 3 4 2 1 2 4 12 26 46 58 168 196 206 212 208 202 203 203 209 210 211 218 225 225 224 225 225 228 229 234
233 223 215 219 225 225 228 288 305 321 352 1 356 1 16 17 14 14 22 35 41 58 82 97 127 165 172 171 180 192 199 206 210 210 213 219 220 221 226 228 229 232 235
228 223 214 209 212 211 242 293 305 317 20 26 17 31 39 24 23 37 49 56 63 79 94 102 128 134 141 148 158 175 192 204 207 207 211 217 216 218 223 224 227 234 237
227 219 212 204 198 201 246 264 213 104 57 41 39 59 57 40 38 41 52 66 71 77 93 99 114 123 130 136 147 161 172 174 182 188 201 210 215 216 221 226 224 234 238
224 216 207 198 197 205 224 218 171 128 84 67 68 75 66 50 47 49 56 72 82 86 96 100 104 106 113 121 130 136 139 148 161 168 173 187 196 210 215 221 224 232 238
224 216 201 195 201 202 213 181 159 135 102 86 81 76 70 69 61 55 63 81 87 94 102 107 108 103 102 109 116 116 120 135 153 157 167 180 191 204 208 216 224 231 237
219 207 198 202 199 197 195 170 156 134 119 101 90 81 81 82 70 60 65 80 90 96 102 106 106 105 101 103 110 109 110 123 149 157 166 177 181 187 194 203 211 223 234
211 204 201 202 203 203 191 177 166 155 133 119 109 103 97 85 73 68 71 79 92 98 101 104 105 101 94 92 99 106 103 110 120 124 142 158 163 176 189 195 209 221 233
209 202 201 204 207 198 184 177 173 164 148 133 118 112 112 96 83 79 80 79 88 97 101 101 103 102 97 96 95 96 92 93 100 106 103 115 158 174 201 213 229 228 238
210 205 198 196 193 190 189 186 183 176 161 145 127 123 121 111 101 91 85 81 85 92 94 100 106 106 102 100 99 97 91 87 90 79 72 84 111 140 183 223 248 245 260
210 206 197 197 199 194 191 192 188 179 168 152 138 129 128 119 109 98 91 87 87 90 94 100 108 111 109 104 100 98 82 87 75 63 58 69 84 102 243 299 304 312 296
209 206 200 201 203 197 196 194 191 187 177 164 148 138 132 125 115 105 99 94 91 92 95 101 112 114 117 118 107 91 74 85 53 32 25 34 37 7 332 320 309 301 299
Height
5880 5879 5879 5878 5878 5878 5877 5877 5877 5876 5876 5876 5875 5875 5875 5875 5876 5876 5876 5877 5877 5877 5877 5878 5878 5879 5880 5881 5882 5883 5884 5885 5886 5887 5888 5889 5890 5891 5892 5893 5894 5895 5896
5880 5879 5879 5878 5878 5878 5877 5877 5876 5876 5875 5875 5875 5874 5874 5874 5874 5875 5875 5875 5876 5876 5876 5876 5877 5878 5879 5879 5880 5882 5882 5883 5884 5885 5887 5888 5889 5890 5891 5892 5893 5894 5895
5879 5879 5878 5878 5878 5877 5877 5876 5876 5875 5875 5874 5874 5873 5873 5873 5873 5874 5874 5874 5874 5874 5875 5875 5875 5876 5877 5878 5879 5880 5881 5882 5883 5884 5885 5887 5888 5889 5890 5891 5892 5893 5894
5878 5878 5878 5877 5877 5877 5876 5876 5875 5875 5874 5874 5873 5873 5872 5872 5872 5872 5872 5872 5872 5873 5873 5873 5874 5875 5875 5876 5877 5878 5879 5880 5881 5883 5884 5885 5887 5888 5889 5890 5891 5892 5893
5878 5878 5877 5877 5876 5876 5876 5875 5875 5874 5874 5873 5872 5871 5871 5871 5871 5871 5870 5870 5871 5871 5871 5871 5872 5872 5873 5874 5875 5876 5877 5878 5880 5881 5882 5884 5885 5887 5888 5889 5890 5891 5892
5877 5877 5876 5876 5876 5875 5875 5874 5874 5873 5872 5872 5871 5870 5870 5870 5870 5869 5869 5869 5869 5869 5869 5869 5870 5870 5871 5872 5873 5874 5875 5876 5878 5880 5881 5882 5884 5885 5886 5887 5889 5890 5891
5876 5876 5875 5875 5875 5874 5874 5873 5873 5872 5871 5871 5870 5870 5869 5869 5869 5868 5868 5868 5867 5867 5867 5867 5868 5868 5869 5870 5871 5872 5873 5875 5876 5878 5879 5881 5882 5883 5885 5886 5887 5889 5890
5875 5875 5875 5874 5874 5873 5873 5872 5872 5871 5871 5870 5869 5869 5868 5868 5867 5867 5866 5866 5866 5865 5865 5865 5866 5866 5867 5868 5869 5871 5872 5873 5875 5876 5878 5879 5880 5882 5883 5884 5886 5887 5888
5874 5874 5873 5873 5872 5872 5872 5871 5870 5870 5870 5869 5868 5868 5867 5867 5866 5866 5865 5864 5864 5864 5863 5863 5864 5864 5866 5866 5867 5869 5870 5871 5873 5874 5876 5877 5878 5880 5881 5883 5884 5885 5887
5873 5873 5872 5872 5872 5871 5871 5870 5870 5869 5869 5868 5868 5867 5866 5866 5865 5864 5863 5863 5862 5862 5862 5862 5862 5863 5864 5865 5866 5867 5868 5870 5871 5873 5874 5875 5877 5878 5880 5881 5882 5884 5885
5871 5871 5871 5871 5871 5870 5870 5870 5869 5869 5868 5868 5867 5866 5866 5865 5864 5863 5862 5862 5861 5860 5860 5860 5860 5861 5862 5863 5864 5865 5867 5868 5869 5871 5872 5873 5875 5876 5878 5879 5881 5882 5883
5870 5870 5870 5870 5870 5870 5869 5869 5868 5868 5867 5867 5867 5866 5865 5864 5863 5862 5861 5860 5859 5859 5859 5858 5859 5860 5861 5862 5863 5864 5865 5867 5868 5869 5870 5872 5873 5875 5876 5877 5879 5880 5881
5868 5868 5869 5869 5869 5869 5869 5868 5868 5868 5867 5867 5866 5865 5864 5863 5863 5861 5860 5859 5859 5858 5858 5857 5858 5859 5860 5861 5862 5863 5864 5865 5867 5868 5869 5870 5872 5873 5874 5876 5877 5878 5879
5867 5868 5868 5868 5868 5868 5868 5868 5868 5867 5867 5866 5866 5865 5864 5863 5862 5861 5860 5859 5858 5858 5857 5857 5857 5858 5859 5859 5860 5862 5863 5864 5865 5866 5868 5869 5870 5872 5873 5874 5875 5876 5877
5867 5867 5867 5867 5868 5868 5868 5868 5868 5867 5866 5866 5865 5865 5864 5863 5862 5861 5860 5859 5858 5858 5857 5857 5857 5857 5858 5859 5860 5861 5862 5864 5865 5866 5867 5868 5869 5870 5871 5872 5873 5875 5876
5866 5866 5867 5867 5867 5867 5868 5867 5867 5867 5866 5865 5865 5864 5863 5863 5862 5861 5860 5859 5858 5858 5857 5857 5857 5857 5858 5859 5860 5861 5862 5863 5864 5865 5866 5867 5868 5869 5870 5871 5872 5873 5874
5865 5866 5866 5866 5867 5867 5867 5867 5867 5866 5866 5865 5864 5864 5863 5863 5862 5861 5860 5859 5858 5858 5857 5857 5857 5857 5858 5859 5860 5861 5862 5863 5864 5865 5865 5866 5867 5868 5869 5870 5871 5872 5873
5864 5865 5865 5866 5866 5866 5867 5866 5866 5866 5865 5865 5864 5864 5863 5863 5862 5861 5860 5859 5858 5858 5858 5858 5858 5858 5858 5859 5860 5861 5861 5862 5863 5864 5865 5866 5867 5868 5868 5869 5870 5871 5871
5863 5864 5865 5865 5866 5866 5866 5866 5866 5866 5865 5865 5864 5864 5864 5863 5862 5861 5860 5859 5859 5858 5858 5858 5858 5859 5859 5860 5860 5861 5861 5862 5863 5864 5864 5865 5866 5867 5867 5868 5869 5870 5870
5862 5863 5864 5865 5865 5865 5866 5866 5866 5866 5865 5865 5865 5864 5864 5863 5862 5862 5861 5860 5859 5859 5859 5859 5860 5860 5860 5861 5861 5861 5862 5862 5863 5864 5864 5865 5866 5866 5867 5867 5868 5869 5869
5861 5862 5863 5864 5864 5865 5865 5866 5866 5866 5866 5865 5865 5865 5864 5864 5863 5862 5861 5861 5860 5860 5860 5861 5861 5861 5861 5862 5862 5862 5863 5863 5863 5864 5865 5865 5866 5866 5866 5867 5868 5868 5869
5860 5861 5862 5863 5864 5864 5865 5865 5866 5866 5866 5866 5866 5865 5865 5865 5864 5863 5863 5862 5862 5861 5861 5862 5862 5862 5862 5863 5863 5863 5864 5864 5864 5864 5865 5865 5865 5866 5866 5867 5867 5868 5868
5860 5860 5861 5862 5863 5864 5864 5865 5865 5866 5866 5866 5866 5866 5866 5865 5865 5864 5864 5864 5863 5863 5863 5863 5863 5863 5864 5864 5864 5865 5865 5865 5865 5865 5865 5865 5865 5866 5866 5867 5867 5867 5868
5859 5860 5860 5861 5862 5863 5864 5865 5865 5866 5866 5866 5866 5866 5866 5866 5866 5866 5865 5865 5864 5864 5864 5864 5864 5865 5865 5865 5865 5865 5866 5866 5866 5865 5865 5865 5865 5866 5866 5867 5867 5867 5867
5857 5859 5859 5861 5862 5863 5864 5865 5865 5866 5866 5866 5867 5867 5867 5867 5867 5867 5866 5866 5866 5866 5865 5865 5865 5866 5866 5866 5866 5866 5866 5866 5866 5866 5866 5866 5866 5866 5866 5866 5867 5867 5867
5856 5857 5859 5860 5861 5862 5863 5864 5865 5866 5866 5867 5867 5867 5867 5867 5867 5867 5867 5867 5867 5867 5867 5866 5866 5867 5867 5867 5867 5867 5867 5867 5867 5867 5866 5866 5866 5867 5866 5866 5866 5866 5866